Waarnemingen

Advertentie
Mijn weer
Kleine Brogel, België (6479): temperatuur & dauwpunt: 17.01.2019 09:00:00 - 23.01.2019 09:00:00 (CET)Kleine Brogel, België (6479): windsnelheid & windstoten: 17.01.2019 09:00:00 - 23.01.2019 09:00:00 (CET)Kleine Brogel, België (6479): windrichting: 17.01.2019 09:00:00 - 23.01.2019 09:00:00 (CET)Kleine Brogel, België (6479): luchtdruk: 17.01.2019 09:00:00 - 23.01.2019 09:00:00 (CET)Kleine Brogel, België (6479): zicht: 17.01.2019 09:00:00 - 23.01.2019 09:00:00 (CET)
Datum & Tijd tt [°C] td [°C] ff [km/u] ff [kn] fx [km/u] fx [kn] dd ppp [hPa] vv [km]
23.01.2019 09:00:00 - - - - - - - - -
23.01.2019 08:00:00 -4,9 -5,8 4 2 14 8 N 998,2 5
23.01.2019 07:00:00 -3,7 -4,9 8 4 - - O 997,8 4,9
23.01.2019 06:00:00 -3,2 -4,7 7 4 14 8 O 997,9 7
23.01.2019 05:00:00 -4,0 -5,1 4 2 11 6 N 998,0 5
23.01.2019 04:00:00 -3,1 -4,3 4 2 - - N 998,3 6
23.01.2019 03:00:00 -1,7 -3,6 4 2 11 6 N 999,1 8
23.01.2019 02:00:00 -1,9 -3,9 4 2 7 4 N 999,3 8
23.01.2019 01:00:00 -2,0 -3,8 4 2 - - - 1000,2 10
23.01.2019 00:00:00 -0,7 -3,1 4 2 14 8 N 1000,7 12
22.01.2019 23:00:00 -0,7 -3,1 7 4 14 8 Z 1001,1 10
22.01.2019 22:00:00 -0,8 -3,1 7 4 - - Z 1001,5 9
22.01.2019 21:00:00 -1,0 -2,9 7 4 18 10 Z 1001,7 8
22.01.2019 20:00:00 -1,1 -2,7 7 4 14 8 Z 1002,3 7
22.01.2019 19:00:00 -1,3 -2,5 7 4 - - Z 1002,7 5
22.01.2019 18:00:00 -1,6 -2,5 7 4 18 10 Z 1003,1 3,0
22.01.2019 17:00:00 -1,5 -2,7 7 4 18 10 Z 1003,5 2,6
22.01.2019 16:00:00 -2,0 -3,0 9 5 - - Z - 1,5
22.01.2019 15:00:00 -1,7 -2,6 11 6 18 10 Z 1004,6 1,2
22.01.2019 14:00:00 -1,6 -2,9 9 5 25 14 Z 1005,2 1,2
22.01.2019 13:00:00 -1,8 -3,5 13 7 - - Z 1006,2 2,0
22.01.2019 12:00:00 -1,0 -5,8 15 8 29 16 Z 1006,8 10
22.01.2019 11:00:00 -2,2 -6,5 11 6 25 14 Z 1007,6 10
22.01.2019 10:00:00 -2,7 -6,9 11 6 - - Z 1008,2 10
22.01.2019 09:00:00 -2,7 -7,0 11 6 25 14 Z 1008,8 10
22.01.2019 08:00:00 -2,7 -6,5 7 4 18 10 Z 1009,7 10
22.01.2019 07:00:00 -3,0 -6,2 7 4 - - Z 1010,6 13
22.01.2019 06:00:00 -3,6 -6,4 7 4 14 8 Z 1011,7 12
22.01.2019 05:00:00 -3,5 -6,4 7 4 14 8 Z 1013,0 12
22.01.2019 04:00:00 -4,5 -7,2 4 2 - - N 1013,8 13
22.01.2019 03:00:00 -5,2 -7,3 4 2 11 6 N 1015,2 10
22.01.2019 02:00:00 -4,7 -6,9 4 2 11 6 N 1016,2 9
22.01.2019 01:00:00 -4,1 -6,4 4 2 - - N 1017,3 9
22.01.2019 00:00:00 -3,6 -6,1 4 2 11 6 N 1018,2 9
21.01.2019 23:00:00 -2,7 -5,5 4 2 7 4 N 1019,0 8
21.01.2019 22:00:00 -2,7 -5,8 4 2 - - - 1019,7 7
21.01.2019 21:00:00 -2,2 -6,0 4 2 7 4 N 1020,2 10
21.01.2019 20:00:00 -1,9 -6,2 4 2 7 4 N 1020,6 10
21.01.2019 19:00:00 -2,4 -6,5 4 2 - - N 1021,1 10
21.01.2019 18:00:00 -2,1 -6,4 4 2 7 4 N 1021,3 18
21.01.2019 17:00:00 1,0 -7,2 4 2 7 4 N 1021,7 20
21.01.2019 16:00:00 2,4 -6,7 7 4 - - ZW 1021,7 20
21.01.2019 15:00:00 3,0 -5,6 7 4 11 6 ZZW 1022,2 20
21.01.2019 14:00:00 2,5 -5,1 4 2 7 4 N 1023,2 20
21.01.2019 13:00:00 1,5 -4,5 7 4 - - N 1023,7 19
21.01.2019 12:00:00 -0,1 -4,2 4 2 7 4 N 1024,4 15
21.01.2019 11:00:00 -2,2 -3,9 4 2 7 4 - 1024,7 8
21.01.2019 10:00:00 -5,3 -6,3 4 2 - - N 1024,9 9
21.01.2019 09:00:00 -8,0 -9,3 0 0 4 2 N 1024,7 9
21.01.2019 08:00:00 -8,0 -9,4 4 2 4 2 N 1024,2 9
21.01.2019 07:00:00 -7,8 -9,3 4 2 - - N 1023,8 8
21.01.2019 06:00:00 -7,9 -9,7 4 2 0 0 N 1023,8 7
21.01.2019 05:00:00 -7,6 -9,0 2 1 0 0 - 1024,0 4,8
21.01.2019 04:00:00 -7,0 -8,4 4 2 - - N 1024,0 6
21.01.2019 03:00:00 -6,7 -8,0 4 2 4 2 N 1024,2 6
21.01.2019 02:00:00 -6,4 -7,6 2 1 0 0 - 1023,7 7
21.01.2019 01:00:00 -5,8 -7,4 2 1 - - - 1023,3 7
21.01.2019 00:00:00 -5,0 -6,6 4 2 7 4 N 1023,2 12
20.01.2019 23:00:00 -4,9 -6,4 4 2 4 2 N 1023,0 11
20.01.2019 22:00:00 -4,0 -5,2 4 2 - - N 1022,5 13
20.01.2019 21:00:00 -3,9 -5,6 4 2 7 4 N 1021,8 12
20.01.2019 20:00:00 -3,5 -5,8 4 2 7 4 N 1021,2 19
20.01.2019 19:00:00 -2,7 -5,9 4 2 - - N 1020,7 15
20.01.2019 18:00:00 -1,1 -5,8 7 4 11 6 NNO 1020,2 20
20.01.2019 17:00:00 -0,1 -5,5 7 4 14 8 ONO 1019,2 20
20.01.2019 16:00:00 1,6 -5,6 11 6 - - ONO 1018,7 18
20.01.2019 15:00:00 1,6 -4,8 11 6 18 10 ONO 1018,3 19
20.01.2019 14:00:00 1,2 -5,2 7 4 18 10 O 1018,2 20
20.01.2019 13:00:00 1,1 -4,4 11 6 - - ONO 1018,1 20
20.01.2019 12:00:00 0,0 -4,9 11 6 14 8 O 1018,2 20
20.01.2019 11:00:00 -1,4 -5,7 7 4 14 8 O 1017,7 19
20.01.2019 10:00:00 -2,9 -6,1 7 4 - - O 1017,2 20
20.01.2019 09:00:00 -5,1 -7,1 7 4 11 6 ONO 1016,5 19
20.01.2019 08:00:00 -5,2 -6,7 4 2 7 4 N 1015,7 15
20.01.2019 07:00:00 -4,4 -6,5 7 4 - - ONO 1015,2 19
20.01.2019 06:00:00 -4,5 -6,2 4 2 7 4 N 1014,7 16
20.01.2019 05:00:00 -4,4 -5,9 4 2 7 4 N 1014,7 14
20.01.2019 04:00:00 -4,4 -5,8 4 2 - - N 1014,8 16
20.01.2019 03:00:00 -3,9 -5,7 4 2 7 4 N 1014,8 20
20.01.2019 02:00:00 -3,2 -5,5 4 2 11 6 N 1014,7 20
20.01.2019 01:00:00 -2,9 -5,4 4 2 - - N 1014,6 18
20.01.2019 00:00:00 -2,1 -5,1 7 4 14 8 O 1014,5 20
19.01.2019 23:00:00 -1,9 -5,0 4 2 11 6 N 1014,3 20
19.01.2019 22:00:00 -1,7 -4,8 4 2 - - N 1014,2 20
19.01.2019 21:00:00 -1,3 -4,8 4 2 11 6 N 1014,1 18
19.01.2019 20:00:00 -0,8 -4,5 4 2 14 8 N 1014,1 20
19.01.2019 19:00:00 -0,3 -4,0 7 4 - - O 1014,2 20
19.01.2019 18:00:00 0,2 -3,3 7 4 14 8 O 1014,1 20
19.01.2019 17:00:00 1,0 -2,7 7 4 18 10 O 1014,1 20
19.01.2019 16:00:00 1,7 -2,0 11 6 - - O 1014,3 20
19.01.2019 15:00:00 2,2 -2,2 7 4 11 6 O 1014,8 20
19.01.2019 14:00:00 1,7 -1,0 4 2 11 6 N 1015,6 20
19.01.2019 13:00:00 0,4 -1,3 4 2 - - N 1016,2 16
19.01.2019 12:00:00 -0,4 -1,7 7 4 11 6 O 1017,1 14
19.01.2019 11:00:00 -1,3 -2,2 4 2 11 6 N 1017,5 14
19.01.2019 10:00:00 -2,7 -3,6 4 2 - - N 1017,6 13
19.01.2019 09:00:00 -3,3 -4,2 4 2 7 4 N 1017,6 11
19.01.2019 08:00:00 -3,3 -4,2 4 2 7 4 N 1017,6 9
19.01.2019 07:00:00 -3,3 -4,2 4 2 - - N 1017,7 8
19.01.2019 06:00:00 -2,9 -3,8 4 2 4 2 N 1018,0 9
19.01.2019 05:00:00 -2,6 -3,4 4 2 4 2 N 1018,3 8
19.01.2019 04:00:00 -2,7 -3,6 4 2 - - N 1018,7 11
19.01.2019 03:00:00 -2,8 -3,6 4 2 4 2 N 1019,2 7
19.01.2019 02:00:00 -2,6 -3,2 4 2 4 2 N 1019,6 6
19.01.2019 01:00:00 -2,2 -2,7 4 2 - - N 1019,8 4,2
19.01.2019 00:00:00 -2,1 -2,6 4 2 4 2 N 1020,1 5
18.01.2019 23:00:00 -1,5 -1,8 4 2 7 4 - 1020,1 3,0
18.01.2019 22:00:00 -1,1 -1,2 4 2 - - N 1020,1 0,7
18.01.2019 21:00:00 -0,7 -0,7 4 2 11 6 N 1020,1 0,5
18.01.2019 20:00:00 -0,3 -0,3 4 2 11 6 N 1020,3 0,6
18.01.2019 19:00:00 -0,3 -0,4 4 2 - - N 1020,6 0,4
18.01.2019 18:00:00 -0,6 -0,7 4 2 7 4 N 1020,8 0,2
18.01.2019 17:00:00 -0,5 -0,5 4 2 7 4 N 1020,7 0,3
18.01.2019 16:00:00 -0,4 -0,5 4 2 - - N 1020,8 1,0
18.01.2019 15:00:00 -0,6 -0,6 4 2 11 6 N 1021,1 0,4
18.01.2019 14:00:00 -0,6 -0,6 4 2 11 6 N 1021,2 0,2
18.01.2019 13:00:00 -0,6 -0,6 7 4 - - ZW 1021,7 0,2
18.01.2019 12:00:00 -0,8 -0,8 4 2 11 6 N 1021,7 0,2
18.01.2019 11:00:00 -1,0 -1,0 4 2 14 8 N 1021,7 0,2
18.01.2019 10:00:00 -2,3 -2,4 4 2 - - N 1021,2 0,2
18.01.2019 09:00:00 -3,5 -3,9 4 2 11 6 N 1020,7 0,3
18.01.2019 08:00:00 -4,1 -4,6 4 2 7 4 N 1019,8 0,3
18.01.2019 07:00:00 -2,5 -3,0 4 2 - - N 1019,5 0,3
18.01.2019 06:00:00 -2,0 -2,8 4 2 7 4 N 1019,0 3,5
18.01.2019 05:00:00 -1,6 -2,4 4 2 7 4 - 1018,3 2,2
18.01.2019 04:00:00 -0,7 -1,3 7 4 - - WZW 1017,8 5
18.01.2019 03:00:00 -0,2 -0,8 8 4 14 8 WZW 1017,2 4,9
18.01.2019 02:00:00 -0,1 -0,5 7 4 14 8 WZW 1016,3 4,6
18.01.2019 01:00:00 0,4 0,0 13 7 - - WZW 1015,7 7
18.01.2019 00:00:00 0,3 0,0 11 6 14 8 ZW 1015,2 10
17.01.2019 23:00:00 0,3 0,0 4 2 18 10 - 1014,8 1,4
17.01.2019 22:00:00 0,4 0,0 11 6 - - W 1013,7 5
17.01.2019 21:00:00 0,9 0,2 11 6 22 12 WZW 1012,6 18
17.01.2019 20:00:00 1,2 0,4 11 6 22 12 W 1011,3 20
17.01.2019 19:00:00 1,1 0,5 14 8 - - W 1009,7 14
17.01.2019 18:00:00 1,9 0,5 18 10 36 19 WZW 1008,2 6
17.01.2019 17:00:00 2,2 0,5 18 10 36 19 W 1008,2 10
17.01.2019 16:00:00 - - 18 10 - - W 1006,8 20
17.01.2019 15:00:00 3,0 0,8 25 14 43 23 W 1006,2 20
17.01.2019 14:00:00 4,0 2,0 15 8 36 19 WNW 1005,1 10
17.01.2019 13:00:00 4,1 3,0 18 10 - - W 1004,0 20
17.01.2019 12:00:00 3,7 2,8 14 8 32 18 W 1003,6 8
17.01.2019 11:00:00 4,0 3,4 14 8 36 19 WZW 1002,8 4,0
17.01.2019 10:00:00 3,9 3,0 25 14 - - WZW 1002,7 3,3
17.01.2019 09:00:00 4,5 3,6 11 6 18 10 ZZW 1002,6 9

tt = temperatuur
td = dauwpunt
ff = windsnelheid
fx = windstoten
dd = windrichting
ppp = luchtdruk
vv = zicht

Weerstations in de omgeving